Location: Newark
(45.5000°N, 11.4167°E)
Time: 17:20:53
(UTC+00:00)

Vanguard 2 - Pass Details

Date: 31 August 2019
Orbit: 554 x 2937 km, 32.9° (Epoch: 15 October)

Event Time Altitude Azimuth Distance (km) Brightness Sun altitude
Rises 12:03:02 0° 248° (WSW) 2,997 10.9 51.7°
Reaches altitude 10° 12:05:29 10° 233° (SW) 2,267 10.6 51.6°
Maximum altitude 12:09:38 24° 180° (S) 1,854 10.6 51.3°
Drops below altitude 10° 12:15:22 10° 131° (SE) 3,234 11.0 50.9°
Sets 12:19:40 0° 119° (ESE) 4,664 11.6 50.6°
